SHIYAN 20C (SY-20C) (54214 NORAD) Tracking and Keplerian Element Data

This shows tracking and keplerian element data for the satellite.

Feedback or suggestion? Click here.




ElementValue
Catalog54214
NameSHIYAN 20C (SY-20C)
Epoch Orbit331
Epoch Day325.18576843
Epoch Year2022
RAAN286.8188
Inclination59.9978
Eccentricity0.0009912
Argument of Perigee295.8117
Mean Anonmoly64.1894
Mean Motion14.27344387
Decay Rate-1.36E-06
L11 54214U 22142A 22325.18576843 -.00000136 00000+0 00000+0 0 9992
L22 54214 59.9978 286.8188 0009912 295.8117 64.1894 14.27344387 3312



Live tracking and technical data element details for SHIYAN 20C (SY-20C) (NORAD 54214). SHIYAN 20C (SY-20C) can be tracked NOW for your location showing map with azimuth and elevation plus other details from your city location.







IsCatalogInMostPopularTable: catalog: 54214, numindb: 5
Update: records affected: 1



GetName: 54214 SHIYAN 20C (SY-20C)

Hit Count: updated at: Sun, 04 Dec 2022 21:08:44 GMT